Location: Unspecified
(54.1780°N, 0.0000°E)
Time: 04:34:07
(UTC+00:00)

Tiros 1 - Pass Details

Date: 22 June 2019
Orbit: 630 x 664 km, 48.4° (Epoch: 23 July)

Event Time Altitude Azimuth Distance (km) Brightness Sun altitude
Rises 02:46:38 0° 263° (W) 2,935 10.1 -4.7°
Reaches altitude 10° 02:49:04 10° 256° (WSW) 2,021 9.2 -4.5°
Maximum altitude 02:53:23 39° 188° (S) 946 7.6 -4.1°
Drops below altitude 10° 02:57:41 10° 119° (ESE) 2,008 9.8 -3.7°
Sets 03:00:06 0° 112° (ESE) 2,914 10.8 -3.4°
